Eastsound, WA
on Wednesday, February 13, 2013

Wednesday
Previous Day Next Day
Daily Summary
 ActualAverage (KBLI)Record (KBLI)
Temperature
Mean Temperature °F 41°F  
Max Temperature 50°F 48°F 60°F (2010)
Min Temperature 39°F 33°F 7°F (1949)
Degree Days
Heating Degree Days 20 24  
Month to date heating degree days 323  
Cooling Degree Days 0 0  
Month to date cooling degree days 0  
Year to date cooling degree days 0  
Moisture
Dew Point 38°F   
Average Humidity 80    
Maximum Humidity 93    
Minimum Humidity 62    
Precipitation
Precipitation 0.00 in 0.10 in 2.40 in (1982)
Month to date precipitation 1.47  
Year to date precipitation 6.14  
Wind
Wind Speed 5 mph   
Max Wind Speed 10 mph   
Max Gust Speed mph   
Visibility 10 miles   
Events     

Key: T is trace of precipitation, MM is missing value
Source: NWS Daily Summary
Time(PST)TemperatureDew PointHumidity Pressure Visibility Wind DirectionWind SpeedGust SpeedPrecipitationEvents Conditions
12:15 AM 46.4°F 39.2°F 76% 30.24 in 10.0 miles South 6.9 mph - N/A   Clear
12:35 AM 46.4°F 37.4°F 71% 30.25 in 10.0 miles South 6.9 mph - N/A   Clear
12:55 AM 46.4°F 37.4°F 71% 30.26 in 10.0 miles SSW 10.4 mph - N/A   Clear
1:15 AM 46.4°F 37.4°F 71% 30.26 in 10.0 miles SSW 5.8 mph - N/A   Clear
1:35 AM 44.6°F 37.4°F 76% 30.26 in 10.0 miles SW 8.1 mph - N/A   Clear
1:55 AM 44.6°F 37.4°F 76% 30.27 in 10.0 miles SSW 9.2 mph - N/A   Clear
2:15 AM 44.6°F 37.4°F 76% 30.27 in 10.0 miles SSW 8.1 mph - N/A   Clear
2:35 AM 44.6°F 37.4°F 76% 30.28 in 10.0 miles South 6.9 mph - N/A   Clear
2:55 AM 42.8°F 37.4°F 81% 30.29 in 10.0 miles South 6.9 mph - N/A   Clear
3:15 AM 42.8°F 37.4°F 81% 30.29 in 10.0 miles SSW 5.8 mph - N/A   Clear
3:35 AM 42.8°F 37.4°F 81% 30.29 in 10.0 miles SSW 5.8 mph - N/A   Clear
3:55 AM 41.0°F 37.4°F 87% 30.30 in 10.0 miles SSW 5.8 mph - N/A   Clear
4:15 AM 41.0°F 37.4°F 87% 30.30 in 10.0 miles SSW 5.8 mph - N/A   Clear
4:35 AM 41.0°F 37.4°F 87% 30.31 in 10.0 miles South 6.9 mph - N/A   Clear
4:55 AM 41.0°F 37.4°F 87% 30.31 in 10.0 miles SSW 6.9 mph - N/A   Clear
5:15 AM 39.2°F 37.4°F 93% 30.31 in 10.0 miles Calm Calm - N/A   Clear
5:35 AM 39.2°F 37.4°F 93% 30.32 in 10.0 miles South 5.8 mph - N/A   Clear
5:55 AM 41.0°F 37.4°F 87% 30.33 in 10.0 miles South 6.9 mph - N/A   Clear
6:15 AM 41.0°F 37.4°F 87% 30.33 in 10.0 miles SSE 4.6 mph - N/A   Clear
6:35 AM 42.8°F 37.4°F 81% 30.33 in 10.0 miles South 6.9 mph - N/A   Clear
6:55 AM 41.0°F 37.4°F 87% 30.33 in 10.0 miles SSW 8.1 mph - N/A   Clear
7:15 AM 42.8°F 37.4°F 81% 30.34 in 10.0 miles South 6.9 mph - N/A   Clear
7:35 AM 42.8°F 37.4°F 81% 30.34 in 10.0 miles South 6.9 mph - N/A   Mostly Cloudy
8:15 AM 42.8°F 39.2°F 87% 30.36 in 10.0 miles South 5.8 mph - N/A   Mostly Cloudy
8:35 AM 42.8°F 39.2°F 87% 30.36 in 10.0 miles South 8.1 mph - N/A   Scattered Clouds
8:55 AM 42.8°F 39.2°F 87% 30.37 in 10.0 miles South 4.6 mph - N/A   Clear
9:15 AM 44.6°F 39.2°F 81% 30.38 in 10.0 miles SSW 6.9 mph - N/A   Clear
9:35 AM 44.6°F 39.2°F 81% 30.38 in 10.0 miles SSW 6.9 mph - N/A   Clear
9:55 AM 44.6°F 39.2°F 81% 30.38 in 10.0 miles SSW 6.9 mph - N/A   Clear
10:15 AM 44.6°F 39.2°F 81% 30.39 in 10.0 miles SSW 8.1 mph - N/A   Clear
10:35 AM 44.6°F 39.2°F 81% 30.39 in 10.0 miles South 8.1 mph - N/A   Clear
10:55 AM 46.4°F 39.2°F 76% 30.40 in 10.0 miles South 5.8 mph - N/A   Clear
11:15 AM 46.4°F 39.2°F 76% 30.40 in 10.0 miles South 5.8 mph - N/A   Clear
11:35 AM 46.4°F 41.0°F 81% 30.40 in 10.0 miles South 5.8 mph - N/A   Clear
11:55 AM 46.4°F 41.0°F 81% 30.40 in 10.0 miles Calm Calm - N/A   Partly Cloudy
12:15 PM 46.4°F 41.0°F 81% 30.41 in 10.0 miles Calm Calm - N/A   Clear
12:35 PM 48.2°F 39.2°F 71% 30.40 in 10.0 miles WSW 3.5 mph - N/A   Clear
12:55 PM 48.2°F 39.2°F 71% 30.40 in 10.0 miles West 4.6 mph - N/A   Partly Cloudy
1:15 PM 48.2°F 39.2°F 71% 30.40 in 10.0 miles WNW 3.5 mph - N/A   Partly Cloudy
1:35 PM 48.2°F 39.2°F 71% 30.40 in 10.0 miles WSW 3.5 mph - N/A   Mostly Cloudy
1:55 PM 48.2°F 37.4°F 66% 30.40 in 10.0 miles Calm Calm - N/A   Overcast
2:15 PM 48.2°F 37.4°F 66% 30.40 in 10.0 miles West 3.5 mph - N/A   Scattered Clouds
2:35 PM 48.2°F 37.4°F 66% 30.39 in 10.0 miles WSW 3.5 mph - N/A   Mostly Cloudy
2:55 PM 50.0°F 37.4°F 62% 30.39 in 10.0 miles Calm Calm - N/A   Overcast
3:15 PM 48.2°F 37.4°F 66% 30.40 in 10.0 miles West 4.6 mph - N/A   Overcast
3:35 PM 48.2°F 37.4°F 66% 30.40 in 10.0 miles Calm Calm - N/A   Overcast
3:55 PM 48.2°F 37.4°F 66% 30.40 in 10.0 miles Calm Calm - N/A   Overcast
4:15 PM 48.2°F 37.4°F 66% 30.40 in 10.0 miles Calm Calm - N/A   Mostly Cloudy
4:35 PM 48.2°F 37.4°F 66% 30.40 in 10.0 miles Calm Calm - N/A   Scattered Clouds
4:55 PM 48.2°F 37.4°F 66% 30.40 in 10.0 miles Calm Calm - N/A   Scattered Clouds
5:15 PM 48.2°F 37.4°F 66% 30.41 in 10.0 miles Calm Calm - N/A   Mostly Cloudy
5:35 PM 46.4°F 39.2°F 76% 30.40 in 10.0 miles Calm Calm - N/A   Partly Cloudy
5:55 PM 46.4°F 37.4°F 71% 30.41 in 10.0 miles Calm Calm - N/A   Clear
6:15 PM 44.6°F 39.2°F 81% 30.41 in 10.0 miles Calm Calm - N/A   Clear
6:35 PM 44.6°F 39.2°F 81% 30.41 in 10.0 miles Calm Calm - N/A   Clear
6:55 PM 44.6°F 39.2°F 81% 30.42 in 10.0 miles Calm Calm - N/A   Clear
7:15 PM 44.6°F 39.2°F 81% 30.42 in 10.0 miles Calm Calm - N/A   Scattered Clouds
7:35 PM 42.8°F 39.2°F 87% 30.43 in 10.0 miles Calm Calm - N/A   Scattered Clouds
8:15 PM 42.8°F 39.2°F 87% 30.43 in 10.0 miles Calm Calm - N/A   Partly Cloudy
8:35 PM 41.0°F 39.2°F 93% 30.43 in 10.0 miles Calm Calm - N/A   Partly Cloudy
8:55 PM 41.0°F 39.2°F 93% 30.43 in 10.0 miles Calm Calm - N/A   Partly Cloudy
9:15 PM 41.0°F 39.2°F 93% 30.44 in 10.0 miles Calm Calm - N/A   Mostly Cloudy
9:35 PM 41.0°F 39.2°F 93% 30.45 in 10.0 miles Calm Calm - N/A   Mostly Cloudy
9:55 PM 41.0°F 39.2°F 93% 30.45 in 10.0 miles North - - N/A   Mostly Cloudy
10:15 PM 42.8°F 39.2°F 87% 30.45 in 10.0 miles Calm Calm - N/A   Mostly Cloudy
10:35 PM 42.8°F 39.2°F 87% 30.46 in 10.0 miles North - - N/A   Scattered Clouds
10:55 PM 42.8°F 39.2°F 87% 30.45 in 10.0 miles Calm Calm - N/A   Scattered Clouds
11:15 PM 42.8°F 39.2°F 87% 30.46 in 10.0 miles Calm Calm - N/A   Partly Cloudy
11:35 PM 42.8°F 39.2°F 87% 30.47 in 10.0 miles Calm Calm - N/A   Partly Cloudy
11:55 PM 42.8°F 39.2°F 87% 30.47 in 10.0 miles SSW 5.8 mph - N/A   Mostly Cloudy
Moon Phase
Feb. 13 Feb. 17 Feb. 25 Mar. 04 Mar. 11
Sunrise:07:22 AM (PST) Moon Rise:08:31 AM (PST)2/13
Sunset:05:30 PM (PST) Moon Set:10:05 PM (PST)2/13

Copyright © 2014 The Weather Underground, Inc.